Time,TemperatureF,DewpointF,PressureIn,WindDirection,WindDirectionDegrees,WindSpeedMPH,WindSpeedGustMPH,Humidity,HourlyPrecipIn,Conditions,Clouds,dailyrainin,SolarRadiationWatts/m^2,SoftwareType,DateUTC
2013-04-21 00:02:00,33.2,18.8,30.40,ESE,114,0.0,0.0,55,0.00,CLR,,0.00,0.0,WeatherDisplay:10.37,2013-04-21 05:02:00,
2013-04-21 00:07:00,32.9,18.1,30.40,ESE,114,0.0,0.0,54,0.00,CLR,,0.00,0.0,WeatherDisplay:10.37,2013-04-21 05:07:00,
2013-04-21 00:12:00,32.8,18.0,30.40,ESE,114,0.0,0.0,54,0.00,CLR,,0.00,0.0,WeatherDisplay:10.37,2013-04-21 05:12:00,
2013-04-21 00:17:00,32.7,17.4,30.40,ESE,114,0.0,0.0,53,0.00,CLR,,0.00,0.0,WeatherDisplay:10.37,2013-04-21 05:17:00,
2013-04-21 00:22:00,32.5,17.2,30.40,ESE,114,0.7,2.4,53,0.00,CLR,,0.00,0.0,WeatherDisplay:10.37,2013-04-21 05:22:00,
2013-04-21 00:27:00,32.4,17.2,30.40,ESE,114,0.0,0.0,53,0.00,CLR,,0.00,0.0,WeatherDisplay:10.37,2013-04-21 05:27:00,
2013-04-21 00:32:00,32.4,17.2,30.40,ESE,114,0.1,1.2,53,0.00,CLR,,0.00,0.0,WeatherDisplay:10.37,2013-04-21 05:32:00,
2013-04-21 00:37:00,32.2,17.0,30.40,ESE,114,0.0,0.0,53,0.00,CLR,,0.00,0.0,WeatherDisplay:10.37,2013-04-21 05:37:00,
2013-04-21 00:42:00,32.2,17.0,30.40,ESE,114,0.0,0.0,53,0.00,CLR,,0.00,0.0,WeatherDisplay:10.37,2013-04-21 05:42:00,
2013-04-21 00:47:00,32.1,16.9,30.40,ESE,114,0.0,0.0,53,0.00,CLR,,0.00,0.0,WeatherDisplay:10.37,2013-04-21 05:47:00,
2013-04-21 00:52:00,31.9,17.1,30.40,ESE,114,0.0,0.0,54,0.00,CLR,,0.00,0.0,WeatherDisplay:10.37,2013-04-21 05:52:00,
2013-04-21 00:57:00,31.9,17.1,30.40,ESE,114,0.0,0.0,54,0.00,CLR,,0.00,0.0,WeatherDisplay:10.37,2013-04-21 05:57:00,
2013-04-21 01:02:00,31.8,17.5,30.40,ESE,114,0.0,0.0,55,0.00,CLR,,0.00,0.0,WeatherDisplay:10.37,2013-04-21 06:02:00,
2013-04-21 01:07:00,31.6,18.1,30.40,ESE,114,0.0,0.0,57,0.00,CLR,,0.00,0.0,WeatherDisplay:10.37,2013-04-21 06:07:00,
2013-04-21 01:12:00,31.6,18.1,30.40,ESE,114,0.0,0.0,57,0.00,CLR,,0.00,0.0,WeatherDisplay:10.37,2013-04-21 06:12:00,
2013-04-21 01:17:00,31.6,18.1,30.40,ESE,114,0.0,0.0,57,0.00,CLR,,0.00,0.0,WeatherDisplay:10.37,2013-04-21 06:17:00,
2013-04-21 01:22:00,31.6,18.5,30.40,ESE,114,0.0,0.0,58,0.00,CLR,,0.00,0.0,WeatherDisplay:10.37,2013-04-21 06:22:00,
2013-04-21 01:27:00,31.6,18.1,30.40,ESE,114,0.0,0.0,57,0.00,CLR,,0.00,0.0,WeatherDisplay:10.37,2013-04-21 06:27:00,
2013-04-21 01:32:00,31.6,18.5,30.40,ESE,114,0.0,0.0,58,0.00,CLR,,0.00,0.0,WeatherDisplay:10.37,2013-04-21 06:32:00,
2013-04-21 01:37:00,31.6,18.9,30.40,ESE,114,0.0,0.0,59,0.00,CLR,,0.00,0.0,WeatherDisplay:10.37,2013-04-21 06:37:00,
2013-04-21 01:42:00,31.5,19.2,30.40,ESE,114,0.0,0.0,60,0.00,CLR,,0.00,0.0,WeatherDisplay:10.37,2013-04-21 06:42:00,
2013-04-21 01:47:00,31.5,19.2,30.40,ESE,114,0.0,0.0,60,0.00,CLR,,0.00,0.0,WeatherDisplay:10.37,2013-04-21 06:47:00,
2013-04-21 01:52:00,31.5,19.6,30.40,ESE,114,0.0,0.0,61,0.00,CLR,,0.00,0.0,WeatherDisplay:10.37,2013-04-21 06:52:00,
2013-04-21 01:57:00,31.5,19.6,30.40,ESE,114,0.0,0.0,61,0.00,CLR,,0.00,0.0,WeatherDisplay:10.37,2013-04-21 06:57:00,
2013-04-21 02:02:00,31.5,20.0,30.41,ESE,114,0.0,0.0,62,0.00,CLR,,0.00,0.0,WeatherDisplay:10.37,2013-04-21 07:02:00,
2013-04-21 02:07:00,31.6,20.1,30.41,ESE,114,0.0,0.0,62,0.00,CLR,,0.00,0.0,WeatherDisplay:10.37,2013-04-21 07:07:00,
2013-04-21 02:12:00,31.6,20.1,30.41,ESE,114,0.0,0.0,62,0.00,CLR,,0.00,0.0,WeatherDisplay:10.37,2013-04-21 07:12:00,
2013-04-21 02:17:00,31.8,20.3,30.40,ESE,114,0.0,0.0,62,0.00,CLR,,0.00,0.0,WeatherDisplay:10.37,2013-04-21 07:17:00,
2013-04-21 02:22:00,32.1,20.5,30.40,ESE,114,0.0,0.0,62,0.00,CLR,,0.00,0.0,WeatherDisplay:10.37,2013-04-21 07:22:00,
2013-04-21 02:27:00,32.1,20.5,30.40,ESE,114,0.0,0.0,62,0.00,CLR,,0.00,0.0,WeatherDisplay:10.37,2013-04-21 07:27:00,
2013-04-21 02:32:00,32.2,20.2,30.40,ESE,114,0.1,1.2,61,0.00,CLR,,0.00,0.0,WeatherDisplay:10.37,2013-04-21 07:32:00,
2013-04-21 02:37:00,32.2,20.2,30.40,ESE,114,0.0,0.0,61,0.00,CLR,,0.00,0.0,WeatherDisplay:10.37,2013-04-21 07:37:00,
2013-04-21 02:42:00,32.4,20.0,30.40,ESE,114,0.8,2.4,60,0.00,CLR,,0.00,0.0,WeatherDisplay:10.37,2013-04-21 07:42:00,
2013-04-21 02:47:00,32.7,20.3,30.41,ESE,114,0.0,0.0,60,0.00,CLR,,0.00,0.0,WeatherDisplay:10.37,2013-04-21 07:47:00,
2013-04-21 02:52:00,32.8,20.0,30.41,ESE,114,0.0,1.2,59,0.00,CLR,,0.00,0.0,WeatherDisplay:10.37,2013-04-21 07:52:00,
2013-04-21 02:57:00,32.9,20.1,30.41,ESE,114,0.0,1.2,59,0.00,CLR,,0.00,0.0,WeatherDisplay:10.37,2013-04-21 07:57:00,
2013-04-21 03:02:00,32.9,20.1,30.41,ESE,114,0.1,2.3,59,0.00,CLR,,0.00,0.0,WeatherDisplay:10.37,2013-04-21 08:02:00,
2013-04-21 03:07:00,33.1,20.3,30.41,ESE,114,0.3,2.4,59,0.00,CLR,,0.00,0.0,WeatherDisplay:10.37,2013-04-21 08:07:00,
2013-04-21 03:12:00,33.1,20.7,30.41,ESE,118,0.0,0.0,60,0.00,CLR,,0.00,0.0,WeatherDisplay:10.37,2013-04-21 08:12:00,
2013-04-21 03:17:00,33.2,20.8,30.41,East,92,0.0,2.3,60,0.00,CLR,,0.00,0.0,WeatherDisplay:10.37,2013-04-21 08:17:00,
2013-04-21 03:22:00,33.2,20.8,30.41,East,86,0.0,0.0,60,0.00,CLR,,0.00,0.0,WeatherDisplay:10.37,2013-04-21 08:22:00,
2013-04-21 03:27:00,33.4,21.0,30.41,ESE,118,0.0,0.0,60,0.00,CLR,,0.00,0.0,WeatherDisplay:10.37,2013-04-21 08:27:00,
2013-04-21 03:32:00,33.4,21.0,30.41,ESE,118,0.0,0.0,60,0.00,CLR,,0.00,0.0,WeatherDisplay:10.37,2013-04-21 08:32:00,
2013-04-21 03:37:00,33.5,21.1,30.41,ESE,119,0.0,0.0,60,0.00,CLR,,0.00,0.0,WeatherDisplay:10.37,2013-04-21 08:37:00,
2013-04-21 03:42:00,33.5,21.1,30.41,ESE,119,0.2,1.2,60,0.00,CLR,,0.00,0.0,WeatherDisplay:10.37,2013-04-21 08:42:00,
2013-04-21 03:47:00,33.7,21.3,30.42,ESE,119,0.0,1.2,60,0.00,CLR,,0.00,0.0,WeatherDisplay:10.37,2013-04-21 08:47:00,
2013-04-21 03:52:00,33.7,21.3,30.42,ESE,119,0.0,0.0,60,0.00,CLR,,0.00,0.0,WeatherDisplay:10.37,2013-04-21 08:52:00,
2013-04-21 03:57:00,33.7,21.7,30.42,ESE,119,0.0,0.0,61,0.00,CLR,,0.00,0.0,WeatherDisplay:10.37,2013-04-21 08:57:00,
2013-04-21 04:02:00,33.7,22.1,30.42,ESE,119,0.0,0.0,62,0.00,CLR,,0.00,0.0,WeatherDisplay:10.37,2013-04-21 09:02:00,
2013-04-21 04:07:00,33.5,21.9,30.42,ESE,119,0.0,0.0,62,0.00,CLR,,0.00,0.0,WeatherDisplay:10.37,2013-04-21 09:07:00,
2013-04-21 04:12:00,33.4,22.1,30.42,ESE,119,0.0,0.0,63,0.00,CLR,,0.00,0.0,WeatherDisplay:10.37,2013-04-21 09:12:00,
2013-04-21 04:17:00,33.4,22.1,30.42,ESE,119,0.0,0.0,63,0.00,CLR,,0.00,0.0,WeatherDisplay:10.37,2013-04-21 09:17:00,
2013-04-21 04:22:00,33.4,22.5,30.42,ESE,103,0.3,4.6,64,0.00,CLR,,0.00,0.0,WeatherDisplay:10.37,2013-04-21 09:22:00,
2013-04-21 04:27:00,33.5,22.6,30.42,East,101,0.3,1.2,64,0.00,CLR,,0.00,0.0,WeatherDisplay:10.37,2013-04-21 09:27:00,
2013-04-21 04:32:00,33.8,22.9,30.41,ESE,109,3.1,4.8,64,0.00,CLR,,0.00,0.0,WeatherDisplay:10.37,2013-04-21 09:32:00,
2013-04-21 04:37:00,34.0,23.1,30.41,ESE,119,0.4,2.4,64,0.00,CLR,,0.00,0.0,WeatherDisplay:10.37,2013-04-21 09:37:00,
2013-04-21 04:42:00,34.1,23.2,30.41,ESE,119,0.0,0.0,64,0.00,CLR,,0.00,0.0,WeatherDisplay:10.37,2013-04-21 09:42:00,
2013-04-21 04:47:00,34.1,23.6,30.42,ESE,119,0.2,1.2,65,0.00,CLR,,0.00,0.0,WeatherDisplay:10.37,2013-04-21 09:47:00,
2013-04-21 04:52:00,34.1,23.6,30.42,East,80,0.0,2.3,65,0.00,CLR,,0.00,0.0,WeatherDisplay:10.37,2013-04-21 09:52:00,
2013-04-21 04:57:00,34.1,23.6,30.42,East,99,1.3,4.6,65,0.00,CLR,,0.00,0.0,WeatherDisplay:10.37,2013-04-21 09:57:00,
2013-04-21 05:02:00,34.1,23.6,30.42,East,99,0.7,2.4,65,0.00,CLR,,0.00,0.0,WeatherDisplay:10.37,2013-04-21 10:02:00,
2013-04-21 05:07:00,34.1,23.9,30.42,East,91,5.6,8.4,66,0.00,CLR,,0.00,0.0,WeatherDisplay:10.37,2013-04-21 10:07:00,
2013-04-21 05:12:00,34.1,23.9,30.42,East,86,0.8,3.6,66,0.00,CLR,,0.00,0.0,WeatherDisplay:10.37,2013-04-21 10:12:00,
2013-04-21 05:17:00,34.1,24.3,30.42,East,88,2.7,7.2,67,0.00,CLR,,0.00,0.0,WeatherDisplay:10.37,2013-04-21 10:17:00,
2013-04-21 05:22:00,34.1,24.3,30.42,ESE,113,0.8,4.8,67,0.00,CLR,,0.00,0.0,WeatherDisplay:10.37,2013-04-21 10:22:00,
2013-04-21 05:27:00,34.1,24.3,30.42,ESE,116,1.8,4.8,67,0.00,CLR,,0.00,0.0,WeatherDisplay:10.37,2013-04-21 10:27:00,
2013-04-21 05:32:00,34.1,24.6,30.43,ESE,105,0.0,2.3,68,0.00,CLR,,0.00,0.0,WeatherDisplay:10.37,2013-04-21 10:32:00,
2013-04-21 05:37:00,34.1,24.6,30.43,ESE,108,0.7,2.4,68,0.00,CLR,,0.00,0.0,WeatherDisplay:10.37,2013-04-21 10:37:00,
2013-04-21 05:42:00,34.1,24.6,30.43,East,90,0.1,1.2,68,0.00,SCT,,0.00,0.0,WeatherDisplay:10.37,2013-04-21 10:42:00,
2013-04-21 05:47:00,34.1,25.0,30.43,ESE,118,1.1,4.8,69,0.00,SCT,,0.00,0.0,WeatherDisplay:10.37,2013-04-21 10:47:00,
2013-04-21 05:52:00,34.1,25.0,30.43,SE,144,1.9,2.4,69,0.00,SCT,,0.00,0.0,WeatherDisplay:10.37,2013-04-21 10:52:00,
2013-04-21 05:57:00,34.1,25.0,30.43,East,95,0.7,2.4,69,0.00,SCT,,0.00,0.0,WeatherDisplay:10.37,2013-04-21 10:57:00,
2013-04-21 06:02:00,34.1,25.3,30.45,ESE,114,1.7,4.8,70,0.00,BKN,,0.00,0.0,WeatherDisplay:10.37,2013-04-21 11:02:00,
2013-04-21 06:07:00,34.1,25.3,30.45,East,86,0.0,2.3,70,0.00,BKN,,0.00,0.0,WeatherDisplay:10.37,2013-04-21 11:07:00,
2013-04-21 06:12:00,34.3,25.5,30.45,SE,127,0.1,1.2,70,0.00,BKN,,0.00,0.0,WeatherDisplay:10.37,2013-04-21 11:12:00,
2013-04-21 06:17:00,34.3,25.5,30.45,East,88,0.0,0.0,70,0.00,BKN,,0.00,0.0,WeatherDisplay:10.37,2013-04-21 11:17:00,
2013-04-21 06:22:00,34.4,25.6,30.45,ESE,111,0.3,2.4,70,0.00,-SN,,0.00,0.0,WeatherDisplay:10.37,2013-04-21 11:22:00,
2013-04-21 06:27:00,34.4,25.6,30.45,ESE,111,0.0,1.2,70,0.00,-SN,,0.00,7.0,WeatherDisplay:10.37,2013-04-21 11:27:00,
2013-04-21 06:32:00,34.4,25.6,30.46,East,101,0.0,1.2,70,0.00,-SN,,0.00,9.0,WeatherDisplay:10.37,2013-04-21 11:32:00,
2013-04-21 06:37:00,34.6,25.8,30.46,ESE,105,0.0,0.0,70,0.00,-SN,,0.00,9.0,WeatherDisplay:10.37,2013-04-21 11:37:00,
2013-04-21 06:42:00,34.6,25.8,30.46,ESE,116,0.3,2.4,70,0.00,SCT,,0.00,12.0,WeatherDisplay:10.37,2013-04-21 11:42:00,
2013-04-21 06:47:00,34.6,25.8,30.48,ESE,116,0.0,0.0,70,0.00,SCT,,0.00,12.0,WeatherDisplay:10.37,2013-04-21 11:47:00,
2013-04-21 06:52:00,34.6,25.8,30.48,SE,139,0.0,0.0,70,0.00,SCT,,0.00,18.0,WeatherDisplay:10.37,2013-04-21 11:52:00,
2013-04-21 06:57:00,34.7,25.9,30.48,East,85,1.0,3.6,70,0.00,SCT,,0.00,23.0,WeatherDisplay:10.37,2013-04-21 11:57:00,
2013-04-21 07:02:00,34.7,25.9,30.47,ESE,103,0.2,1.2,70,0.00,CLR,,0.00,23.0,WeatherDisplay:10.37,2013-04-21 12:02:00,
2013-04-21 07:07:00,34.7,25.9,30.47,East,92,0.8,2.4,70,0.00,CLR,,0.00,19.0,WeatherDisplay:10.37,2013-04-21 12:07:00,
2013-04-21 07:12:00,34.7,25.9,30.47,East,96,2.1,6.0,70,0.00,CLR,,0.00,32.0,WeatherDisplay:10.37,2013-04-21 12:12:00,
2013-04-21 07:17:00,34.7,25.9,30.46,East,80,0.2,2.3,70,0.00,CLR,,0.00,42.0,WeatherDisplay:10.37,2013-04-21 12:17:00,
2013-04-21 07:22:00,34.7,25.9,30.46,East,96,2.2,13.2,70,0.00,SCT,,0.00,40.0,WeatherDisplay:10.37,2013-04-21 12:22:00,
2013-04-21 07:27:00,34.7,25.9,30.46,East,81,3.8,7.2,70,0.00,SCT,,0.00,35.0,WeatherDisplay:10.37,2013-04-21 12:27:00,
2013-04-21 07:32:00,34.7,25.6,30.46,SE,138,4.3,10.4,69,0.00,SCT,,0.00,49.0,WeatherDisplay:10.37,2013-04-21 12:32:00,
2013-04-21 07:37:00,34.9,25.8,30.46,East,82,1.8,7.2,69,0.00,SCT,,0.00,30.0,WeatherDisplay:10.37,2013-04-21 12:37:00,
2013-04-21 07:42:00,34.9,25.8,30.46,East,98,6.5,9.6,69,0.00,-SN,,0.00,32.0,WeatherDisplay:10.37,2013-04-21 12:42:00,
2013-04-21 07:47:00,34.9,25.8,30.47,SE,136,3.7,9.6,69,0.00,-SN,,0.00,44.0,WeatherDisplay:10.37,2013-04-21 12:47:00,
2013-04-21 07:52:00,34.9,25.8,30.47,SSE,152,0.8,4.8,69,0.00,-SN,,0.00,49.0,WeatherDisplay:10.37,2013-04-21 12:52:00,
2013-04-21 07:57:00,34.9,25.8,30.47,SSE,167,2.6,6.0,69,0.00,-SN,,0.00,54.0,WeatherDisplay:10.37,2013-04-21 12:57:00,
2013-04-21 08:02:00,35.0,25.9,30.48,SSE,161,2.3,6.0,69,0.00,-SN,,0.00,70.0,WeatherDisplay:10.37,2013-04-21 13:02:00,
2013-04-21 08:07:00,35.0,26.2,30.48,SSE,163,4.8,8.4,70,0.00,-SN,,0.00,69.0,WeatherDisplay:10.37,2013-04-21 13:07:00,
2013-04-21 08:12:00,35.2,26.0,30.48,SSE,154,3.3,6.9,69,0.00,-SN,,0.00,77.0,WeatherDisplay:10.37,2013-04-21 13:12:00,
2013-04-21 08:17:00,35.2,26.0,30.48,SSE,155,5.2,6.0,69,0.00,-SN,,0.00,81.0,WeatherDisplay:10.37,2013-04-21 13:17:00,
2013-04-21 08:22:00,35.3,26.1,30.48,SE,136,2.0,6.0,69,0.00,-SN,,0.00,109.0,WeatherDisplay:10.37,2013-04-21 13:22:00,
2013-04-21 08:27:00,35.5,26.0,30.48,ESE,123,5.5,8.1,68,0.00,-SN,,0.00,125.0,WeatherDisplay:10.37,2013-04-21 13:27:00,
2013-04-21 08:32:00,35.6,26.1,30.48,SSE,148,5.4,6.0,68,0.00,-SN,,0.00,81.0,WeatherDisplay:10.37,2013-04-21 13:32:00,
2013-04-21 08:37:00,35.8,26.6,30.48,South,182,1.6,6.0,69,0.00,-SN,,0.00,125.0,WeatherDisplay:10.37,2013-04-21 13:37:00,
2013-04-21 08:42:00,35.9,26.4,30.48,ESE,121,4.8,7.2,68,0.00,-SN,,0.00,262.0,WeatherDisplay:10.37,2013-04-21 13:42:00,
2013-04-21 08:47:00,36.2,25.9,30.47,ESE,121,8.5,11.5,66,0.00,-SN,,0.00,243.0,WeatherDisplay:10.37,2013-04-21 13:47:00,
2013-04-21 08:52:00,36.5,25.8,30.47,South,177,10.3,14.4,65,0.00,-SN,,0.00,241.0,WeatherDisplay:10.37,2013-04-21 13:52:00,
2013-04-21 08:57:00,36.8,26.1,30.47,East,91,5.2,9.6,65,0.00,-SN,,0.00,114.0,WeatherDisplay:10.37,2013-04-21 13:57:00,
2013-04-21 09:02:00,36.8,26.1,30.47,SSE,155,9.0,10.4,65,0.00,-SN,,0.00,153.0,WeatherDisplay:10.37,2013-04-21 14:02:00,
2013-04-21 09:07:00,36.6,26.3,30.47,SE,146,10.5,12.0,66,0.00,-SN,,0.00,98.0,WeatherDisplay:10.37,2013-04-21 14:07:00,
2013-04-21 09:12:00,36.2,27.4,30.47,South,169,12.8,19.6,70,0.00,-SN,,0.00,70.0,WeatherDisplay:10.37,2013-04-21 14:12:00,
2013-04-21 09:17:00,35.6,28.1,30.47,South,185,9.0,12.7,74,0.00,-SN,,0.00,60.0,WeatherDisplay:10.37,2013-04-21 14:17:00,
2013-04-21 09:22:00,34.3,29.1,30.47,SSE,166,9.4,11.5,81,0.00,-SN,,0.00,104.0,WeatherDisplay:10.37,2013-04-21 14:22:00,
2013-04-21 09:27:00,33.4,29.4,30.47,SE,144,11.5,15.0,85,0.00,-SN,,0.00,70.0,WeatherDisplay:10.37,2013-04-21 14:27:00,
2013-04-21 09:32:00,32.9,29.5,30.47,SE,146,5.2,9.2,87,0.00,-SN,,0.00,102.0,WeatherDisplay:10.37,2013-04-21 14:32:00,
2013-04-21 09:37:00,32.8,29.9,30.47,SSE,152,7.2,9.6,89,0.00,-SN,,0.00,121.0,WeatherDisplay:10.37,2013-04-21 14:37:00,
2013-04-21 09:42:00,32.7,30.1,30.47,South,175,4.9,7.2,90,0.00,-SN,,0.00,120.0,WeatherDisplay:10.37,2013-04-21 14:42:00,
2013-04-21 09:47:00,32.8,30.5,30.47,South,171,4.0,7.2,91,0.00,-SN,,0.00,123.0,WeatherDisplay:10.37,2013-04-21 14:47:00,
2013-04-21 09:52:00,32.8,30.5,30.47,SE,132,6.4,8.4,91,0.00,-SN,,0.00,118.0,WeatherDisplay:10.37,2013-04-21 14:52:00,
2013-04-21 09:57:00,32.7,30.6,30.47,SSE,165,2.3,6.9,92,0.00,-SN,,0.00,84.0,WeatherDisplay:10.37,2013-04-21 14:57:00,
2013-04-21 10:02:00,32.7,30.6,30.47,South,186,4.6,6.0,92,0.00,OVC,,0.00,97.0,WeatherDisplay:10.37,2013-04-21 15:02:00,
2013-04-21 10:07:00,32.7,30.9,30.47,SSE,164,4.6,9.6,93,0.00,OVC,,0.00,69.0,WeatherDisplay:10.37,2013-04-21 15:07:00,
2013-04-21 10:12:00,32.8,31.0,30.47,SSE,159,5.2,8.4,93,0.00,OVC,,0.00,46.0,WeatherDisplay:10.37,2013-04-21 15:12:00,
2013-04-21 10:17:00,32.8,31.0,30.47,SSE,162,8.8,12.0,93,0.00,OVC,,0.00,39.0,WeatherDisplay:10.37,2013-04-21 15:17:00,
2013-04-21 10:22:00,32.7,30.9,30.47,SSE,148,5.4,8.4,93,0.00,-SN,,0.00,63.0,WeatherDisplay:10.37,2013-04-21 15:22:00,
2013-04-21 10:27:00,32.5,31.0,30.47,South,172,6.5,12.7,94,0.00,-SN,,0.00,104.0,WeatherDisplay:10.37,2013-04-21 15:27:00,
2013-04-21 10:32:00,32.4,30.9,30.46,SE,145,4.8,6.0,94,0.00,-SN,,0.00,79.0,WeatherDisplay:10.37,2013-04-21 15:32:00,
2013-04-21 10:37:00,32.4,30.9,30.46,SE,140,1.9,7.2,94,0.00,-SN,,0.00,104.0,WeatherDisplay:10.37,2013-04-21 15:37:00,
2013-04-21 10:42:00,32.4,30.9,30.46,ESE,120,4.2,8.4,94,0.00,-SN,,0.00,90.0,WeatherDisplay:10.37,2013-04-21 15:42:00,
2013-04-21 10:47:00,32.4,30.9,30.46,South,171,7.9,10.8,94,0.00,-SN,,0.00,70.0,WeatherDisplay:10.37,2013-04-21 15:47:00,
2013-04-21 10:52:00,32.4,31.1,30.46,South,169,5.7,8.4,95,0.00,-SN,,0.00,72.0,WeatherDisplay:10.37,2013-04-21 15:52:00,
2013-04-21 10:57:00,32.4,31.1,30.46,SSE,150,4.8,7.2,95,0.00,-SN,,0.00,60.0,WeatherDisplay:10.37,2013-04-21 15:57:00,
2013-04-21 11:02:00,32.4,31.1,30.45,SSE,157,6.5,9.6,95,0.00,-SN,,0.00,53.0,WeatherDisplay:10.37,2013-04-21 16:02:00,
2013-04-21 11:07:00,32.4,31.1,30.45,ESE,102,7.6,14.4,95,0.00,-SN,,0.00,62.0,WeatherDisplay:10.37,2013-04-21 16:07:00,
2013-04-21 11:12:00,32.4,31.1,30.45,South,183,4.7,10.8,95,0.00,OVC,,0.00,77.0,WeatherDisplay:10.37,2013-04-21 16:12:00,
2013-04-21 11:17:00,32.5,31.2,30.44,SE,142,6.8,10.8,95,0.00,OVC,,0.00,98.0,WeatherDisplay:10.37,2013-04-21 16:17:00,
2013-04-21 11:22:00,32.5,31.2,30.44,ESE,123,6.6,10.8,95,0.00,-SN,,0.00,90.0,WeatherDisplay:10.37,2013-04-21 16:22:00,
2013-04-21 11:27:00,32.5,31.5,30.44,East,100,4.1,6.0,96,0.00,-SN,,0.00,79.0,WeatherDisplay:10.37,2013-04-21 16:27:00,
2013-04-21 11:32:00,32.5,31.5,30.43,SSE,158,10.5,12.0,96,0.00,-SN,,0.00,77.0,WeatherDisplay:10.37,2013-04-21 16:32:00,
2013-04-21 11:37:00,32.5,31.5,30.43,SE,135,6.5,12.0,96,0.01,-SN,,0.01,123.0,WeatherDisplay:10.37,2013-04-21 16:37:00,
2013-04-21 11:42:00,32.5,31.5,30.43,ESE,104,7.4,10.8,96,0.01,-SN,,0.01,174.0,WeatherDisplay:10.37,2013-04-21 16:42:00,
2013-04-21 11:47:00,32.7,31.7,30.42,East,98,4.7,8.1,96,0.01,-SN,,0.01,178.0,WeatherDisplay:10.37,2013-04-21 16:47:00,
2013-04-21 11:52:00,32.8,31.8,30.42,SSE,154,4.1,7.2,96,0.01,-SN,,0.01,230.0,WeatherDisplay:10.37,2013-04-21 16:52:00,
2013-04-21 11:57:00,32.9,31.9,30.42,ESE,123,7.9,15.0,96,0.02,-SN,,0.02,239.0,WeatherDisplay:10.37,2013-04-21 16:57:00,
2013-04-21 12:02:00,33.1,32.1,30.40,SSE,150,8.2,10.8,96,0.03,-RA,,0.03,246.0,WeatherDisplay:10.37,2013-04-21 17:02:00,
2013-04-21 12:07:00,33.2,32.2,30.40,SSE,152,6.3,10.4,96,0.03,-RA,,0.03,271.0,WeatherDisplay:10.37,2013-04-21 17:07:00,
2013-04-21 12:12:00,33.5,32.5,30.40,SSE,149,5.6,10.4,96,0.05,-RA,,0.05,281.0,WeatherDisplay:10.37,2013-04-21 17:12:00,
2013-04-21 12:17:00,33.8,32.8,30.39,South,170,9.6,10.8,96,0.05,-RA,,0.05,378.0,WeatherDisplay:10.37,2013-04-21 17:17:00,
2013-04-21 12:22:00,34.3,33.3,30.39,SE,132,3.3,8.1,96,0.05,SCT,,0.05,371.0,WeatherDisplay:10.37,2013-04-21 17:22:00,
2013-04-21 12:27:00,35.0,34.2,30.39,East,100,2.8,6.0,97,0.05,SCT,,0.05,617.0,WeatherDisplay:10.37,2013-04-21 17:27:00,
2013-04-21 12:32:00,35.6,34.6,30.38,East,81,5.3,7.2,96,0.05,SCT,,0.05,503.0,WeatherDisplay:10.37,2013-04-21 17:32:00,
2013-04-21 12:37:00,35.9,34.6,30.38,ESE,105,3.4,10.4,95,0.05,SCT,,0.05,464.0,WeatherDisplay:10.37,2013-04-21 17:37:00,
2013-04-21 12:42:00,36.2,34.4,30.38,SSE,154,7.5,13.2,93,0.03,SCT,,0.05,624.0,WeatherDisplay:10.37,2013-04-21 17:42:00,
2013-04-21 12:47:00,37.3,34.6,30.38,South,178,7.0,10.4,90,0.03,SCT,,0.05,872.0,WeatherDisplay:10.37,2013-04-21 17:47:00,
2013-04-21 12:52:00,38.3,34.8,30.38,SE,141,5.9,9.6,87,0.03,SCT,,0.05,396.0,WeatherDisplay:10.37,2013-04-21 17:52:00,
2013-04-21 12:57:00,38.6,33.9,30.38,South,178,6.9,9.6,83,0.02,SCT,,0.05,476.0,WeatherDisplay:10.37,2013-04-21 17:57:00,
2013-04-21 13:02:00,39.1,33.5,30.36,SE,134,9.2,12.0,80,0.02,CLR,,0.05,1079.0,WeatherDisplay:10.37,2013-04-21 18:02:00,
2013-04-21 13:07:00,39.9,33.9,30.36,South,173,8.9,12.0,79,0.01,CLR,,0.05,287.0,WeatherDisplay:10.37,2013-04-21 18:07:00,
2013-04-21 13:12:00,40.1,33.5,30.36,SE,140,7.8,10.8,77,0.00,CLR,,0.05,276.0,WeatherDisplay:10.37,2013-04-21 18:12:00,
2013-04-21 13:17:00,40.3,32.3,30.36,SE,140,13.7,18.4,73,0.00,CLR,,0.05,348.0,WeatherDisplay:10.37,2013-04-21 18:17:00,
2013-04-21 13:22:00,40.8,32.8,30.36,SE,144,11.8,15.0,73,0.00,-DZ,,0.05,236.0,WeatherDisplay:10.37,2013-04-21 18:22:00,
2013-04-21 13:27:00,40.9,32.6,30.36,SE,134,8.0,9.6,72,0.00,-DZ,,0.05,229.0,WeatherDisplay:10.37,2013-04-21 18:27:00,
2013-04-21 13:32:00,40.8,33.2,30.36,SSE,147,7.5,10.8,74,0.00,-DZ,,0.05,302.0,WeatherDisplay:10.37,2013-04-21 18:32:00,
2013-04-21 13:37:00,40.5,32.5,30.36,SSE,159,10.6,16.1,73,0.01,-DZ,,0.06,272.0,WeatherDisplay:10.37,2013-04-21 18:37:00,
2013-04-21 13:42:00,40.6,32.6,30.36,SE,139,6.9,8.4,73,0.01,RA,,0.06,181.0,WeatherDisplay:10.37,2013-04-21 18:42:00,
2013-04-21 13:47:00,40.5,32.9,30.35,SSE,159,0.6,4.8,74,0.01,RA,,0.06,141.0,WeatherDisplay:10.37,2013-04-21 18:47:00,
2013-04-21 13:52:00,40.2,32.6,30.35,SSE,154,0.3,8.1,74,0.02,RA,,0.07,202.0,WeatherDisplay:10.37,2013-04-21 18:52:00,
2013-04-21 13:57:00,40.2,32.9,30.35,SSE,153,0.0,1.2,75,0.02,RA,,0.07,232.0,WeatherDisplay:10.37,2013-04-21 18:57:00,
2013-04-21 14:02:00,40.5,33.5,30.35,ESE,113,1.3,6.0,76,0.02,SCT,,0.07,163.0,WeatherDisplay:10.37,2013-04-21 19:02:00,
2013-04-21 14:07:00,40.6,33.3,30.35,ESE,115,0.7,2.4,75,0.02,SCT,,0.07,237.0,WeatherDisplay:10.37,2013-04-21 19:07:00,
2013-04-21 14:12:00,41.2,33.9,30.35,ESE,119,0.0,5.8,75,0.02,SCT,,0.07,441.0,WeatherDisplay:10.37,2013-04-21 19:12:00,
2013-04-21 14:17:00,41.9,34.6,30.34,SE,125,2.8,7.2,75,0.02,SCT,,0.07,216.0,WeatherDisplay:10.37,2013-04-21 19:17:00,
2013-04-21 14:22:00,42.6,33.9,30.34,SE,136,7.6,8.4,71,0.02,-RA,,0.07,200.0,WeatherDisplay:10.37,2013-04-21 19:22:00,
2013-04-21 14:27:00,43.5,34.4,30.34,SSE,155,1.1,4.8,70,0.02,-RA,,0.07,276.0,WeatherDisplay:10.37,2013-04-21 19:27:00,
2013-04-21 14:32:00,44.2,33.6,30.33,SE,136,5.4,9.6,66,0.02,-RA,,0.07,309.0,WeatherDisplay:10.37,2013-04-21 19:32:00,
2013-04-21 14:37:00,45.1,30.8,30.33,SSE,159,16.3,21.9,57,0.02,-RA,,0.07,294.0,WeatherDisplay:10.37,2013-04-21 19:37:00,
2013-04-21 14:42:00,45.5,30.3,30.33,SSE,150,13.1,17.3,55,0.01,CLR,,0.07,267.0,WeatherDisplay:10.37,2013-04-21 19:42:00,
2013-04-21 14:47:00,45.4,30.6,30.32,SE,135,14.7,18.4,56,0.01,CLR,,0.07,139.0,WeatherDisplay:10.37,2013-04-21 19:47:00,
2013-04-21 14:52:00,45.1,31.6,30.32,SSE,151,10.5,15.0,59,0.00,CLR,,0.07,162.0,WeatherDisplay:10.37,2013-04-21 19:52:00,
2013-04-21 14:57:00,44.9,31.8,30.32,South,175,12.1,16.8,60,0.00,CLR,,0.07,287.0,WeatherDisplay:10.37,2013-04-21 19:57:00,
2013-04-21 15:02:00,45.1,32.4,30.31,SSE,154,7.8,10.8,61,0.00,-RA,,0.07,230.0,WeatherDisplay:10.37,2013-04-21 20:02:00,
2013-04-21 15:07:00,45.5,32.4,30.31,SSE,153,8.7,15.0,60,0.00,-RA,,0.07,186.0,WeatherDisplay:10.37,2013-04-21 20:07:00,
2013-04-21 15:12:00,46.0,32.5,30.31,SSE,156,9.0,10.8,59,0.00,-RA,,0.07,190.0,WeatherDisplay:10.37,2013-04-21 20:12:00,
2013-04-21 15:17:00,46.2,32.2,30.30,SSE,162,12.5,15.0,58,0.00,-RA,,0.07,234.0,WeatherDisplay:10.37,2013-04-21 20:17:00,
2013-04-21 15:22:00,46.8,32.4,30.30,SE,144,11.2,17.3,57,0.00,SCT,,0.07,199.0,WeatherDisplay:10.37,2013-04-21 20:22:00,
2013-04-21 15:27:00,47.0,32.1,30.30,SSE,155,14.0,17.3,56,0.00,SCT,,0.07,294.0,WeatherDisplay:10.37,2013-04-21 20:27:00,
2013-04-21 15:32:00,47.4,32.5,30.29,South,178,12.4,16.1,56,0.00,SCT,,0.07,308.0,WeatherDisplay:10.37,2013-04-21 20:32:00,
2013-04-21 15:37:00,47.6,32.2,30.29,SSE,153,10.7,13.2,55,0.00,SCT,,0.07,181.0,WeatherDisplay:10.37,2013-04-21 20:37:00,
2013-04-21 15:42:00,47.4,32.5,30.29,SSE,153,8.5,12.7,56,0.00,CLR,,0.07,162.0,WeatherDisplay:10.37,2013-04-21 20:42:00,
2013-04-21 15:47:00,47.4,32.5,30.28,South,173,10.0,13.2,56,0.00,CLR,,0.07,315.0,WeatherDisplay:10.37,2013-04-21 20:47:00,
2013-04-21 15:52:00,47.6,31.8,30.28,SSE,157,14.0,18.4,54,0.00,CLR,,0.07,330.0,WeatherDisplay:10.37,2013-04-21 20:52:00,
2013-04-21 15:57:00,47.7,32.3,30.28,SSE,154,12.4,15.6,55,0.00,CLR,,0.07,301.0,WeatherDisplay:10.37,2013-04-21 20:57:00,
2013-04-21 16:02:00,47.9,32.9,30.28,SSE,155,8.8,15.0,56,0.00,CLR,,0.07,338.0,WeatherDisplay:10.37,2013-04-21 21:02:00,
2013-04-21 16:07:00,48.0,32.1,30.28,SSE,162,11.5,14.4,54,0.00,CLR,,0.07,262.0,WeatherDisplay:10.37,2013-04-21 21:07:00,
2013-04-21 16:12:00,48.3,33.3,30.28,SSE,162,9.0,13.2,56,0.00,SCT,,0.07,200.0,WeatherDisplay:10.37,2013-04-21 21:12:00,
2013-04-21 16:17:00,48.5,33.1,30.27,SE,131,11.9,12.0,55,0.00,SCT,,0.07,243.0,WeatherDisplay:10.37,2013-04-21 21:17:00,
2013-04-21 16:22:00,48.6,33.1,30.27,SSE,162,12.7,16.1,55,0.00,CLR,,0.07,200.0,WeatherDisplay:10.37,2013-04-21 21:22:00,
2013-04-21 16:27:00,48.6,33.1,30.27,SE,142,11.2,16.1,55,0.00,CLR,,0.07,290.0,WeatherDisplay:10.37,2013-04-21 21:27:00,
2013-04-21 16:32:00,48.8,32.9,30.27,SSE,152,11.4,17.3,54,0.00,CLR,,0.07,376.0,WeatherDisplay:10.37,2013-04-21 21:32:00,
2013-04-21 16:37:00,49.2,33.7,30.27,SE,135,10.1,13.2,55,0.00,CLR,,0.07,466.0,WeatherDisplay:10.37,2013-04-21 21:37:00,
2013-04-21 16:42:00,49.5,33.5,30.27,South,171,9.1,12.0,54,0.00,CLR,,0.07,357.0,WeatherDisplay:10.37,2013-04-21 21:42:00,
2013-04-21 16:47:00,49.9,33.9,30.26,SE,146,9.6,12.0,54,0.00,CLR,,0.07,413.0,WeatherDisplay:10.37,2013-04-21 21:47:00,
2013-04-21 16:52:00,50.2,33.7,30.26,SSE,162,16.1,20.7,53,0.00,CLR,,0.07,432.0,WeatherDisplay:10.37,2013-04-21 21:52:00,
2013-04-21 16:57:00,50.4,33.9,30.26,SE,142,15.3,20.4,53,0.00,CLR,,0.07,360.0,WeatherDisplay:10.37,2013-04-21 21:57:00,
2013-04-21 17:02:00,50.5,34.0,30.25,South,184,9.7,11.5,53,0.00,CLR,,0.07,346.0,WeatherDisplay:10.37,2013-04-21 22:02:00,
2013-04-21 17:07:00,50.5,34.0,30.25,SSE,162,13.4,18.4,53,0.00,CLR,,0.07,248.0,WeatherDisplay:10.37,2013-04-21 22:07:00,
2013-04-21 17:12:00,50.1,33.6,30.25,SSE,158,14.4,17.3,53,0.00,CLR,,0.07,283.0,WeatherDisplay:10.37,2013-04-21 22:12:00,
2013-04-21 17:17:00,50.1,34.5,30.25,South,175,12.7,18.0,55,0.00,CLR,,0.07,327.0,WeatherDisplay:10.37,2013-04-21 22:17:00,
2013-04-21 17:22:00,50.1,33.6,30.25,SSE,165,16.1,22.8,53,0.00,CLR,,0.07,346.0,WeatherDisplay:10.37,2013-04-21 22:22:00,
2013-04-21 17:27:00,50.4,34.4,30.25,South,169,12.2,19.6,54,0.00,CLR,,0.07,288.0,WeatherDisplay:10.37,2013-04-21 22:27:00,
2013-04-21 17:32:00,50.4,34.4,30.25,SSE,160,16.6,21.6,54,0.00,CLR,,0.07,269.0,WeatherDisplay:10.37,2013-04-21 22:32:00,
2013-04-21 17:37:00,50.5,34.5,30.25,SSE,153,16.1,18.4,54,0.00,CLR,,0.07,241.0,WeatherDisplay:10.37,2013-04-21 22:37:00,
2013-04-21 17:42:00,50.5,34.5,30.25,SSE,161,12.3,20.7,54,0.00,CLR,,0.07,197.0,WeatherDisplay:10.37,2013-04-21 22:42:00,
2013-04-21 17:47:00,50.5,34.9,30.24,SSE,149,16.1,18.4,55,0.00,CLR,,0.07,214.0,WeatherDisplay:10.37,2013-04-21 22:47:00,
2013-04-21 17:52:00,50.5,34.5,30.24,South,174,16.5,19.2,54,0.00,CLR,,0.07,193.0,WeatherDisplay:10.37,2013-04-21 22:52:00,
2013-04-21 17:57:00,50.5,34.9,30.24,SSE,161,14.2,15.6,55,0.00,CLR,,0.07,185.0,WeatherDisplay:10.37,2013-04-21 22:57:00,
2013-04-21 18:02:00,50.5,35.4,30.24,SSE,148,10.1,20.7,56,0.00,CLR,,0.07,202.0,WeatherDisplay:10.37,2013-04-21 23:02:00,
2013-04-21 18:07:00,50.7,35.1,30.24,SSE,153,11.3,15.0,55,0.00,CLR,,0.07,213.0,WeatherDisplay:10.37,2013-04-21 23:07:00,
2013-04-21 18:12:00,50.8,35.2,30.24,SE,131,11.6,16.1,55,0.00,CLR,,0.07,192.0,WeatherDisplay:10.37,2013-04-21 23:12:00,
2013-04-21 18:17:00,51.0,35.8,30.23,South,169,12.6,15.0,56,0.00,CLR,,0.07,156.0,WeatherDisplay:10.37,2013-04-21 23:17:00,
2013-04-21 18:22:00,51.1,35.5,30.23,South,179,13.2,13.2,55,0.00,CLR,,0.07,141.0,WeatherDisplay:10.37,2013-04-21 23:22:00,
2013-04-21 18:27:00,51.1,35.9,30.23,South,186,13.0,18.0,56,0.00,CLR,,0.07,118.0,WeatherDisplay:10.37,2013-04-21 23:27:00,
2013-04-21 18:32:00,51.1,36.4,30.22,SSE,153,9.0,12.0,57,0.00,CLR,,0.07,109.0,WeatherDisplay:10.37,2013-04-21 23:32:00,
2013-04-21 18:37:00,51.0,35.8,30.22,SSE,164,12.0,15.0,56,0.00,CLR,,0.07,100.0,WeatherDisplay:10.37,2013-04-21 23:37:00,
2013-04-21 18:42:00,51.0,35.8,30.22,SSE,163,13.3,20.4,56,0.00,CLR,,0.07,86.0,WeatherDisplay:10.37,2013-04-21 23:42:00,
2013-04-21 18:47:00,50.8,36.1,30.22,South,174,9.3,13.2,57,0.00,CLR,,0.07,76.0,WeatherDisplay:10.37,2013-04-21 23:47:00,
2013-04-21 18:52:00,50.8,36.1,30.22,SSE,155,11.0,13.2,57,0.00,CLR,,0.07,69.0,WeatherDisplay:10.37,2013-04-21 23:52:00,
2013-04-21 18:57:00,50.8,36.1,30.22,SE,146,12.0,15.0,57,0.00,CLR,,0.07,63.0,WeatherDisplay:10.37,2013-04-21 23:57:00,
2013-04-21 19:02:00,50.7,36.0,30.22,South,184,11.5,13.2,57,0.00,CLR,,0.07,56.0,WeatherDisplay:10.37,2013-04-22 00:02:00,
2013-04-21 19:07:00,50.7,36.5,30.22,SSE,168,8.0,10.4,58,0.00,CLR,,0.07,49.0,WeatherDisplay:10.37,2013-04-22 00:07:00,
2013-04-21 19:12:00,50.5,36.3,30.22,SSE,155,11.7,14.4,58,0.00,CLR,,0.07,44.0,WeatherDisplay:10.37,2013-04-22 00:12:00,
2013-04-21 19:17:00,50.5,36.3,30.22,SSE,148,11.9,17.3,58,0.00,CLR,,0.07,35.0,WeatherDisplay:10.37,2013-04-22 00:17:00,
2013-04-21 19:22:00,50.4,36.6,30.22,SE,146,11.1,14.4,59,0.00,CLR,,0.07,28.0,WeatherDisplay:10.37,2013-04-22 00:22:00,
2013-04-21 19:27:00,50.2,36.4,30.22,SSE,165,8.1,9.6,59,0.00,CLR,,0.07,21.0,WeatherDisplay:10.37,2013-04-22 00:27:00,
2013-04-21 19:32:00,50.2,36.8,30.21,SSE,147,9.8,15.0,60,0.00,CLR,,0.07,14.0,WeatherDisplay:10.37,2013-04-22 00:32:00,
2013-04-21 19:37:00,50.1,36.7,30.21,South,173,9.9,12.7,60,0.00,CLR,,0.07,9.0,WeatherDisplay:10.37,2013-04-22 00:37:00,
2013-04-21 19:42:00,49.9,36.6,30.21,SSE,157,11.8,13.2,60,0.00,CLR,,0.07,5.0,WeatherDisplay:10.37,2013-04-22 00:42:00,
2013-04-21 19:47:00,49.9,36.6,30.22,SSE,167,7.6,9.6,60,0.00,CLR,,0.07,0.0,WeatherDisplay:10.37,2013-04-22 00:47:00,
2013-04-21 19:52:00,49.9,37.0,30.22,South,191,8.7,12.0,61,0.00,CLR,,0.07,0.0,WeatherDisplay:10.37,2013-04-22 00:52:00,
2013-04-21 19:57:00,49.9,37.0,30.22,South,181,8.5,9.6,61,0.00,CLR,,0.07,0.0,WeatherDisplay:10.37,2013-04-22 00:57:00,
2013-04-21 20:02:00,49.8,37.3,30.22,SSE,161,7.8,9.2,62,0.00,CLR,,0.07,0.0,WeatherDisplay:10.37,2013-04-22 01:02:00,
2013-04-21 20:07:00,49.5,37.0,30.22,South,169,8.1,10.8,62,0.00,CLR,,0.07,0.0,WeatherDisplay:10.37,2013-04-22 01:07:00,
2013-04-21 20:12:00,49.5,37.4,30.22,SSE,157,7.5,10.8,63,0.00,CLR,,0.07,0.0,WeatherDisplay:10.37,2013-04-22 01:12:00,
2013-04-21 20:17:00,49.6,37.1,30.21,SSE,151,9.6,10.8,62,0.00,CLR,,0.07,0.0,WeatherDisplay:10.37,2013-04-22 01:17:00,
2013-04-21 20:22:00,49.6,37.1,30.21,South,180,13.0,16.8,62,0.00,SCT,,0.07,0.0,WeatherDisplay:10.37,2013-04-22 01:22:00,
2013-04-21 20:27:00,49.6,37.1,30.21,SSE,167,10.8,13.2,62,0.00,SCT,,0.07,0.0,WeatherDisplay:10.37,2013-04-22 01:27:00,
2013-04-21 20:32:00,49.5,37.4,30.21,SSE,157,8.1,9.6,63,0.00,SCT,,0.07,0.0,WeatherDisplay:10.37,2013-04-22 01:32:00,
2013-04-21 20:37:00,49.4,37.3,30.21,SSE,150,10.6,14.4,63,0.00,SCT,,0.07,0.0,WeatherDisplay:10.37,2013-04-22 01:37:00,
2013-04-21 20:42:00,49.4,37.3,30.21,South,182,9.8,12.0,63,0.00,SCT,,0.07,0.0,WeatherDisplay:10.37,2013-04-22 01:42:00,
2013-04-21 20:47:00,49.2,37.1,30.21,South,181,8.5,10.4,63,0.00,SCT,,0.07,0.0,WeatherDisplay:10.37,2013-04-22 01:47:00,
2013-04-21 20:52:00,49.4,37.3,30.21,SE,146,10.8,15.0,63,0.00,SCT,,0.07,0.0,WeatherDisplay:10.37,2013-04-22 01:52:00,
2013-04-21 20:57:00,49.2,37.1,30.21,SSE,161,8.8,9.6,63,0.00,SCT,,0.07,0.0,WeatherDisplay:10.37,2013-04-22 01:57:00,
2013-04-21 21:02:00,49.2,37.9,30.22,SE,146,11.4,15.6,65,0.00,SCT,,0.07,0.0,WeatherDisplay:10.37,2013-04-22 02:02:00,
2013-04-21 21:07:00,49.2,37.1,30.22,SSE,153,11.3,16.1,63,0.00,SCT,,0.07,0.0,WeatherDisplay:10.37,2013-04-22 02:07:00,
2013-04-21 21:12:00,49.2,37.5,30.22,SE,138,7.3,10.4,64,0.00,CLR,,0.07,0.0,WeatherDisplay:10.37,2013-04-22 02:12:00,
2013-04-21 21:17:00,49.1,37.4,30.22,SSE,157,9.4,12.0,64,0.00,CLR,,0.07,0.0,WeatherDisplay:10.37,2013-04-22 02:17:00,
2013-04-21 21:22:00,49.1,37.4,30.22,South,175,8.7,12.7,64,0.00,CLR,,0.07,0.0,WeatherDisplay:10.37,2013-04-22 02:22:00,
2013-04-21 21:27:00,48.9,37.6,30.22,SSE,159,9.2,15.0,65,0.00,CLR,,0.07,0.0,WeatherDisplay:10.37,2013-04-22 02:27:00,
2013-04-21 21:32:00,48.9,37.6,30.22,South,182,9.4,13.2,65,0.00,CLR,,0.07,0.0,WeatherDisplay:10.37,2013-04-22 02:32:00,
2013-04-21 21:37:00,48.9,37.6,30.22,SSE,167,9.8,13.2,65,0.00,CLR,,0.07,0.0,WeatherDisplay:10.37,2013-04-22 02:37:00,
2013-04-21 21:42:00,48.9,37.6,30.22,South,172,8.8,12.0,65,0.00,CLR,,0.07,0.0,WeatherDisplay:10.37,2013-04-22 02:42:00,
2013-04-21 21:47:00,48.8,37.9,30.22,SSE,153,8.3,12.0,66,0.00,CLR,,0.07,0.0,WeatherDisplay:10.37,2013-04-22 02:47:00,
2013-04-21 21:52:00,48.8,37.9,30.22,SSE,167,9.9,12.0,66,0.00,CLR,,0.07,0.0,WeatherDisplay:10.37,2013-04-22 02:52:00,
2013-04-21 21:57:00,48.8,37.9,30.22,SSE,161,10.0,17.3,66,0.00,CLR,,0.07,0.0,WeatherDisplay:10.37,2013-04-22 02:57:00,
2013-04-21 22:02:00,48.8,37.9,30.22,South,175,11.6,16.1,66,0.00,CLR,,0.07,0.0,WeatherDisplay:10.37,2013-04-22 03:02:00,
2013-04-21 22:07:00,48.8,37.9,30.22,SSE,165,10.2,16.1,66,0.00,CLR,,0.07,0.0,WeatherDisplay:10.37,2013-04-22 03:07:00,
2013-04-21 22:12:00,48.6,37.7,30.22,SSE,153,10.2,12.7,66,0.00,CLR,,0.07,0.0,WeatherDisplay:10.37,2013-04-22 03:12:00,
2013-04-21 22:17:00,48.6,37.7,30.22,South,176,14.3,22.8,66,0.00,CLR,,0.07,0.0,WeatherDisplay:10.37,2013-04-22 03:17:00,
2013-04-21 22:22:00,48.8,37.9,30.22,SE,137,13.1,16.8,66,0.00,SCT,,0.07,0.0,WeatherDisplay:10.37,2013-04-22 03:22:00,
2013-04-21 22:27:00,48.6,38.1,30.22,SSE,153,15.1,19.6,67,0.00,SCT,,0.07,0.0,WeatherDisplay:10.37,2013-04-22 03:27:00,
2013-04-21 22:32:00,48.5,38.0,30.21,SSW,201,10.2,18.0,67,0.00,SCT,,0.07,0.0,WeatherDisplay:10.37,2013-04-22 03:32:00,
2013-04-21 22:37:00,48.6,38.1,30.21,SSW,200,12.2,16.1,67,0.00,SCT,,0.07,0.0,WeatherDisplay:10.37,2013-04-22 03:37:00,
2013-04-21 22:42:00,48.6,37.7,30.21,South,180,11.9,18.0,66,0.00,SCT,,0.07,0.0,WeatherDisplay:10.37,2013-04-22 03:42:00,
2013-04-21 22:47:00,48.6,38.1,30.21,SSW,198,10.0,14.4,67,0.00,SCT,,0.07,0.0,WeatherDisplay:10.37,2013-04-22 03:47:00,
2013-04-21 22:52:00,48.8,37.9,30.21,South,186,12.6,17.3,66,0.00,SCT,,0.07,0.0,WeatherDisplay:10.37,2013-04-22 03:52:00,
2013-04-21 22:57:00,48.8,37.9,30.21,South,175,10.8,14.4,66,0.00,SCT,,0.07,0.0,WeatherDisplay:10.37,2013-04-22 03:57:00,
2013-04-21 23:01:00,48.8,37.9,30.20,South,171,13.5,17.3,66,0.00,SCT,,0.07,0.0,WeatherDisplay:10.37,2013-04-22 04:01:00,
2013-04-21 23:06:00,48.6,38.1,30.20,South,171,8.9,17.3,67,0.00,SCT,,0.07,0.0,WeatherDisplay:10.37,2013-04-22 04:06:00,
2013-04-21 23:11:00,48.6,38.1,30.20,SSE,161,14.8,20.7,67,0.00,-RA,,0.07,0.0,WeatherDisplay:10.37,2013-04-22 04:11:00,
2013-04-21 23:16:00,48.8,38.3,30.21,SSW,199,16.8,19.6,67,0.00,-RA,,0.07,0.0,WeatherDisplay:10.37,2013-04-22 04:16:00,
2013-04-21 23:21:00,48.9,38.0,30.21,SSE,161,12.2,15.6,66,0.00,-RA,,0.07,0.0,WeatherDisplay:10.37,2013-04-22 04:21:00,
2013-04-21 23:26:00,48.9,38.0,30.21,SSW,205,9.8,15.6,66,0.00,-RA,,0.07,0.0,WeatherDisplay:10.37,2013-04-22 04:26:00,
2013-04-21 23:31:00,49.1,38.2,30.20,SSW,193,9.4,15.0,66,0.00,-RA,,0.07,0.0,WeatherDisplay:10.37,2013-04-22 04:31:00,
2013-04-21 23:36:00,49.1,38.2,30.20,SSE,166,13.2,24.2,66,0.00,-RA,,0.07,0.0,WeatherDisplay:10.37,2013-04-22 04:36:00,
2013-04-21 23:41:00,48.9,38.4,30.20,SSW,196,9.0,12.0,67,0.00,OVC,,0.07,0.0,WeatherDisplay:10.37,2013-04-22 04:41:00,
2013-04-21 23:46:00,48.9,38.0,30.20,SW,217,11.4,18.4,66,0.00,OVC,,0.07,0.0,WeatherDisplay:10.37,2013-04-22 04:46:00,
2013-04-21 23:51:00,49.1,38.2,30.20,South,186,12.3,16.1,66,0.00,OVC,,0.07,0.0,WeatherDisplay:10.37,2013-04-22 04:51:00,
2013-04-21 23:56:00,49.1,38.2,30.20,SSW,197,8.1,12.7,66,0.00,OVC,,0.07,0.0,WeatherDisplay:10.37,2013-04-22 04:56:00,